Simultaneous Nadir Overpasses (SNOs) Predictions

Prediction of SNOs between NOAA-20 and NOAA-19 Satellite Orbit:

Table of predicted SNOs for the next 14.0 days since TLE Epoch: 7/6/2024
Index Date (NOAA-20) Time (NOAA-20) Lat,Lon (NOAA-20) SZA (NOAA-20 ) Date (NOAA-19) Time (NOAA-19) Lat,Lon (NOAA-19) SZA (NOAA-19 ) Distance(km) Time Diff (sec)
1 07/10/2024 02:06:08 -72.38, -39.06 129.66 07/10/2024 02:05:01 -72.38, -41.73 129.46 89.77 67
2 07/10/2024 02:57:06 72.96, 127.05 51.00 07/10/2024 02:55:52 72.94, 126.73 51.01 10.77 74
3 07/10/2024 03:47:51 -73.04, -65.79 128.92 07/10/2024 03:46:46 -73.02, -65.83 128.92 2.49 65
4 07/10/2024 04:38:38 73.06, 101.45 51.12 07/10/2024 04:37:48 73.03, 101.45 51.10 3.68 50
5 07/10/2024 05:29:21 -73.04, -91.18 128.91 07/10/2024 05:28:43 -73.06, -91.22 128.87 2.63 38
6 07/10/2024 06:20:08 73.07, 76.07 51.13 07/10/2024 06:19:45 73.08, 76.06 51.15 0.91 23
7 07/10/2024 07:10:52 -73.09,-116.67 128.84 07/10/2024 07:10:40 -73.10,-116.61 128.83 2.15 12
8 07/10/2024 08:01:39 73.12, 50.58 51.20 07/10/2024 08:01:42 73.12, 50.67 51.19 2.95 3
9 07/10/2024 08:52:22 -73.10,-142.05 128.83 07/10/2024 08:52:38 -73.10,-142.11 128.82 2.09 16
10 07/10/2024 09:43:09 73.12, 25.20 51.22 07/10/2024 09:43:40 73.11, 25.17 51.20 1.54 31
11 07/10/2024 10:33:53 -73.15,-167.54 128.76 07/10/2024 10:34:35 -73.14,-167.50 128.78 1.51 42
12 07/10/2024 11:24:40 73.18, -0.30 51.28 07/10/2024 11:25:37 73.16, -0.22 51.25 3.30 57
13 07/10/2024 12:15:23 -73.15, 167.08 128.74 07/10/2024 12:16:33 -73.13, 166.99 128.77 3.40 70
14 07/10/2024 13:06:18 73.58, -26.58 51.75 07/10/2024 13:07:27 73.54, -24.80 51.59 56.21 69



Historial Predications of SNOs between NOAA-20 and NOAA-19
